TimeCDT,TemperatureF,Dew PointF,Humidity,Sea Level PressureIn,VisibilityMPH,Wind Direction,Wind SpeedMPH,Gust SpeedMPH,PrecipitationIn,Events,Conditions,WindDirDegrees,DateUTC
12:55 AM,57.2,53.1,86,29.83,10.0,SW,6.9,-,N/A,,Clear,220,2012-10-17 05:55:00
1:55 AM,56.7,52.7,87,29.83,10.0,SW,6.9,-,N/A,,Clear,220,2012-10-17 06:55:00
2:55 AM,56.5,53.4,89,29.81,10.0,South,3.5,-,N/A,,Clear,190,2012-10-17 07:55:00
3:55 AM,55.4,53.4,93,29.81,10.0,South,4.6,-,N/A,,Clear,180,2012-10-17 08:55:00
4:55 AM,55.0,53.2,94,29.81,10.0,SSE,4.6,-,N/A,,Clear,160,2012-10-17 09:55:00
5:55 AM,55.6,52.9,91,29.81,10.0,South,8.1,-,N/A,,Clear,180,2012-10-17 10:55:00
6:55 AM,55.6,51.8,87,29.80,10.0,South,6.9,-,N/A,,Partly Cloudy,170,2012-10-17 11:55:00
7:55 AM,56.8,50.9,80,29.80,10.0,South,8.1,-,N/A,,Partly Cloudy,170,2012-10-17 12:55:00
8:55 AM,63.3,50.9,64,29.80,10.0,South,11.5,-,N/A,,Scattered Clouds,190,2012-10-17 13:55:00
9:55 AM,65.8,48.7,54,29.79,10.0,South,13.8,-,N/A,,Mostly Cloudy,190,2012-10-17 14:55:00
10:55 AM,70.3,48.0,45,29.78,10.0,South,11.5,21.9,N/A,,Partly Cloudy,180,2012-10-17 15:55:00
11:55 AM,72.3,48.2,42,29.75,10.0,South,12.7,18.4,N/A,,Partly Cloudy,180,2012-10-17 16:55:00
12:55 PM,75.6,46.0,35,29.71,10.0,SSW,21.9,31.1,N/A,,Clear,210,2012-10-17 17:55:00
1:55 PM,75.7,45.3,34,29.68,10.0,SSW,24.2,29.9,N/A,,Scattered Clouds,200,2012-10-17 18:55:00
2:55 PM,77.4,45.9,33,29.66,10.0,South,17.3,24.2,N/A,,Clear,180,2012-10-17 19:55:00
3:55 PM,77.4,46.8,34,29.64,10.0,South,16.1,-,N/A,,Clear,190,2012-10-17 20:55:00
4:55 PM,75.7,46.9,36,29.62,10.0,South,16.1,23.0,N/A,,Clear,170,2012-10-17 21:55:00
5:55 PM,72.9,45.5,38,29.61,10.0,South,16.1,-,N/A,,Clear,170,2012-10-17 22:55:00
6:55 PM,70.3,45.9,41,29.59,10.0,SSE,9.2,-,N/A,,Partly Cloudy,160,2012-10-17 23:55:00
7:55 PM,69.4,45.7,42,29.55,10.0,South,20.7,29.9,N/A,,Clear,180,2012-10-18 00:55:00
8:55 PM,69.8,45.5,42,29.52,10.0,South,20.7,36.8,N/A,,Clear,170,2012-10-18 01:55:00
9:40 PM,69.8,46.4,43,29.52,10.0,South,21.9,29.9,N/A,,Light Drizzle,190,2012-10-18 02:40:00
9:55 PM,67.5,49.6,53,29.52,10.0,South,18.4,29.9,0.00,Rain,Light Rain,180,2012-10-18 02:55:00
10:02 PM,66.2,50.0,56,29.51,10.0,South,15.0,29.9,N/A,Rain-Thunderstorm,Light Thunderstorms and Rain,180,2012-10-18 03:02:00
10:37 PM,62.6,55.4,77,29.57,9.0,WSW,19.6,-,N/A,Rain-Thunderstorm,Light Thunderstorms and Rain,240,2012-10-18 03:37:00
10:44 PM,60.8,57.2,88,29.58,2.5,SW,18.4,-,N/A,Rain-Thunderstorm,Heavy Thunderstorms and Rain,230,2012-10-18 03:44:00
10:54 PM,59.0,59.0,100,29.58,2.5,WSW,13.8,24.2,N/A,Rain-Thunderstorm,Heavy Thunderstorms and Rain,240,2012-10-18 03:54:00
10:55 PM,59.4,59.2,99,29.58,3.0,WSW,12.7,24.2,0.24,Rain-Thunderstorm,Heavy Thunderstorms and Rain,240,2012-10-18 03:55:00
11:01 PM,59.0,59.0,100,29.64,2.5,West,21.9,26.5,N/A,Rain-Thunderstorm,Heavy Thunderstorms and Rain,270,2012-10-18 04:01:00
11:03 PM,59.0,59.0,100,29.63,2.0,West,20.7,26.5,N/A,Rain-Thunderstorm,Heavy Rain,270,2012-10-18 04:03:00
11:04 PM,59.0,59.0,100,29.63,1.8,West,18.4,26.5,N/A,Rain-Thunderstorm,Heavy Rain,260,2012-10-18 04:04:00
11:08 PM,59.0,59.0,100,29.64,1.8,West,18.4,26.5,N/A,Rain,Heavy Rain,280,2012-10-18 04:08:00
11:12 PM,59.0,59.0,100,29.65,2.0,West,13.8,26.5,N/A,Rain,Heavy Rain,280,2012-10-18 04:12:00
11:14 PM,59.0,59.0,100,29.65,2.5,West,16.1,26.5,N/A,Rain,Heavy Rain,280,2012-10-18 04:14:00